RH
67 78 75 50 48 64 69 80 76 47 41 49 78 52 46 66 69 65 66 61 63 56 49 51 73 90 96 80 82 83 86 82 84 82 88 84 72 68 64 60 60 58 55 58
75 75 43 49 52 60 70 74 72 51 42 50 57 61 41 52 64 63 66 63 62 56 51 53 65 94 96 91 84 84 85 88 85 82 82 83 76 65 63 65 63 61 61 64
76 47 45 55 66 79 72 85 74 73 72 54 59 68 55 74 70 65 61 55 69 62 54 60 64 91 92 94 87 86 88 90 87 83 86 85 82 81 77 76 71 68 64 70
62 50 60 61 72 84 94 83 96 95 99 97 55 86 83 78 84 73 66 67 70 60 56 62 63 87 92 95 93 88 93 94 87 80 89 89 86 85 76 76 78 75 65 69
66 55 61 77 72 99 99 99 97 98 98 99 88 84 100 92 89 74 63 63 59 65 70 64 62 82 86 96 98 99 98 97 97 90 92 93 86 81 81 80 81 81 79 70
71 54 67 73 70 93 95 98 98 99 100 98 84 68 98 93 69 63 57 62 66 75 76 61 66 91 92 95 95 97 99 99 98 97 97 93 95 97 96 92 90 90 90 90
75 91 82 94 98 78 95 94 89 95 95 95 91 60 69 51 63 64 63 68 81 88 76 53 62 91 92 91 91 89 95 97 97 98 94 98 97 98 94 93 93 91 90 91
90 85 82 91 98 100 100 94 91 90 90 92 71 84 78 44 41 40 61 79 85 89 69 51 54 76 96 97 94 93 92 92 95 96 97 97 97 99 100 99 97 99 98 96
81 84 79 96 97 98 93 91 95 79 62 68 89 63 45 44 47 44 71 83 89 90 80 50 54 66 86 94 96 95 94 92 91 92 97 98 98 97 100 99 98 99 99 99
76 89 55 68 86 74 88 94 91 83 77 88 81 86 86 60 62 54 80 87 94 85 52 39 50 64 73 87 96 95 94 94 92 92 94 92 94 94 93 96 99 98 99 99
73 66 72 62 84 99 85 84 75 64 65 65 73 91 56 62 63 59 70 90 95 90 75 48 46 60 76 78 90 93 90 92 97 94 91 88 86 87 89 94 97 94 97 92
71 69 85 84 60 72 65 74 73 80 71 72 62 89 42 49 58 58 61 83 92 89 82 59 50 53 70 82 88 96 94 94 93 92 92 94 96 96 97 96 90 88 85 78
68 74 81 72 66 60 66 64 70 66 70 87 72 83 42 44 51 53 58 60 83 84 78 61 58 53 60 76 81 91 93 88 84 87 88 90 90 89 88 85 79 76 74 71
66 68 91 82 78 75 90 68 66 86 80 64 68 59 52 53 52 52 53 58 59 69 70 73 68 68 60 66 74 81 91 87 85 84 84 85 83 81 80 77 74 71 66 66
61 91 73 66 66 67 72 69 63 92 65 82 60 62 57 54 52 50 47 51 61 67 63 65 69 68 64 63 66 72 80 82 80 80 81 80 78 76 75 74 70 64 62 62
61 79 68 76 55 52 62 62 56 61 56 56 54 62 49 49 44 47 50 52 57 58 59 66 61 61 64 65 62 67 75 77 74 77 78 76 72 70 71 70 68 66 63 62
67 65 66 75 57 59 65 70 66 62 60 56 63 59 49 53 58 62 57 55 58 58 58 67 62 62 64 63 61 62 63 64 68 70 70 69 67 68 68 66 68 68 69 67
70 68 62 58 48 66 58 57 60 66 66 57 58 55 53 56 59 59 58 59 57 60 61 61 64 61 59 60 60 61 62 63 67 65 66 64 64 66 66 66 70 76 75 78
69 65 58 56 58 61 60 61 74 67 75 60 53 51 52 56 54 60 61 60 62 63 64 65 63 63 60 61 60 61 62 65 66 65 65 64 63 66 66 74 76 75 83 93
69 60 56 63 64 66 56 54 54 54 76 61 52 54 53 49 47 58 62 60 60 62 66 68 65 60 59 64 61 61 60 59 63 64 64 61 64 65 68 71 78 88 79 93
59 58 63 59 64 55 48 53 54 55 70 66 56 58 56 54 58 64 60 63 60 63 67 65 66 70 70 65 62 66 65 68 68 65 66 66 65 68 69 77 80 83 86 89
56 55 54 62 66 69 58 60 54 57 62 65 61 61 64 63 65 65 66 67 67 67 65 67 70 75 73 70 66 70 74 74 71 68 70 70 70 70 70 76 84 74 74 74
55 50 49 51 51 65 69 68 67 63 63 70 66 65 61 65 66 67 68 66 68 68 67 63 65 68 72 77 73 74 76 69 68 68 69 69 67 66 65 65 72 67 67 65
62 62 53 62 66 67 66 68 70 68 68 70 71 67 64 62 64 71 70 68 68 70 70 66 63 65 73 76 79 81 83 79 69 72 71 68 67 66 64 68 67 64 67 68
54 60 58 64 68 66 64 65 68 70 68 69 68 73 68 63 66 64 70 72 72 68 69 68 67 67 70 68 70 76 79 86 92 94 95 93 89 83 80 78 72 69 65 72
59 58 55 51 50 49 52 61 65 64 68 71 71 70 68 71 69 70 74 72 63 61 64 67 70 69 71 68 70 74 72 70 70 72 82 89 90 93 98 96 96 93 92 90
Wind_Speed
2 7 11 13 13 16 14 17 22 22 21 14 15 18 15 9 9 11 13 8 7 10 12 10 9 14 19 21 24 20 21 22 14 13 12 10 11 8 9 9 12 13 11 12
6 13 16 7 12 16 19 20 23 23 23 17 15 20 17 13 12 12 13 12 11 12 13 9 11 17 18 22 21 19 17 16 14 11 10 8 8 9 9 9 11 12 12 12
11 11 8 14 15 17 19 19 21 22 8 13 12 13 14 8 9 11 12 10 11 11 12 9 12 16 17 16 15 16 14 14 14 14 10 8 8 6 8 10 9 9 12 11
11 5 9 13 17 14 19 7 15 16 11 6 17 6 12 10 11 14 13 12 9 10 7 5 13 17 22 17 19 15 14 13 15 16 11 15 12 11 9 9 9 9 11 10
4 9 9 14 11 5 7 6 11 13 9 5 12 3 4 12 9 10 7 6 3 8 8 7 14 16 18 18 7 6 11 10 8 12 11 9 12 9 7 7 10 9 8 9
18 8 6 5 12 14 11 7 6 5 2 5 3 3 4 1 2 3 4 3 3 7 8 11 12 8 15 11 12 7 6 9 8 8 8 12 9 6 6 8 8 6 6 6
5 5 4 4 8 5 4 7 2 3 4 5 5 9 8 8 2 3 3 11 10 11 8 9 14 12 16 18 16 15 11 9 8 7 7 7 8 6 2 6 6 10 7 5
6 1 5 1 1 5 4 5 5 5 5 3 4 6 5 11 9 3 5 8 10 11 7 5 13 15 13 15 17 15 15 15 12 9 8 8 3 4 3 3 2 3 3 5
5 3 0 3 3 3 4 3 5 3 2 2 4 4 6 17 16 11 9 5 6 7 10 9 14 13 13 13 12 13 11 10 13 13 9 6 4 7 4 3 2 3 4 5
3 6 1 1 4 2 3 4 1 1 3 5 4 7 10 19 17 14 11 3 8 7 8 12 14 12 10 13 10 11 11 11 15 13 13 11 13 11 13 9 8 9 6 7
4 4 6 1 7 5 4 2 2 1 4 3 3 6 10 10 11 14 8 7 9 12 13 13 14 12 10 10 9 10 9 10 9 12 12 12 11 10 11 10 9 9 9 11
3 4 4 3 4 6 5 7 4 4 5 5 6 6 10 11 15 12 12 8 8 10 12 9 12 11 11 9 10 8 8 9 9 12 11 9 8 8 9 8 9 10 11 10
3 3 3 3 2 1 5 13 5 3 2 6 4 5 7 12 16 15 15 11 7 10 13 15 12 12 10 9 9 7 6 8 10 11 12 11 11 11 11 9 9 10 11 12
4 5 6 6 4 5 6 17 10 1 7 13 11 12 13 14 15 15 14 13 13 13 12 13 12 11 10 7 7 6 7 6 7 11 12 12 12 11 11 10 10 10 11 11
4 4 5 6 3 3 8 13 16 9 5 9 11 15 11 12 12 12 12 13 14 14 13 13 11 10 8 7 7 8 6 6 7 10 10 11 11 11 11 10 10 10 10 9
4 2 2 6 9 10 14 16 12 13 13 14 14 13 7 7 8 12 13 12 12 12 12 11 10 11 9 6 7 7 7 5 7 8 9 10 11 11 10 10 10 10 10 11
3 1 1 2 4 5 7 13 10 9 10 6 10 6 6 9 12 12 11 11 11 11 11 10 9 8 7 6 5 7 7 6 7 8 8 8 10 11 11 11 11 11 10 9
4 1 1 2 3 4 3 4 2 12 10 9 8 6 6 6 6 10 11 11 11 11 10 10 9 7 5 5 6 6 6 6 8 9 8 7 8 9 9 10 10 9 10 10
5 2 2 1 5 3 3 3 2 4 7 8 6 5 5 3 1 9 11 11 10 11 9 9 7 6 5 3 5 6 6 6 6 6 8 9 9 9 9 9 10 8 8 8
1 2 3 1 3 2 3 1 3 3 4 6 5 7 7 2 3 6 9 10 11 9 8 10 9 6 5 4 3 4 5 6 5 5 6 7 7 8 9 9 9 5 7 6
1 2 3 3 4 3 1 2 3 1 5 4 5 6 6 6 6 5 6 9 8 8 11 10 9 8 7 4 4 4 4 3 2 4 7 8 7 7 8 8 6 7 8 8
2 1 2 1 2 3 1 3 2 5 4 4 4 4 4 5 3 3 5 7 8 10 11 11 9 9 9 7 4 5 6 3 2 2 3 2 4 4 5 7 5 7 7 7
2 2 1 3 3 3 2 3 3 2 4 2 2 2 3 3 2 2 3 5 7 8 9 10 9 10 11 11 9 8 7 4 4 5 5 5 4 4 5 6 5 4 6 5
3 3 1 4 3 2 1 3 3 2 4 3 3 2 0 3 4 4 3 4 6 7 7 6 7 9 10 10 11 10 8 7 5 4 4 4 5 5 5 4 5 6 6 6
2 7 5 1 2 3 4 2 3 4 4 3 2 2 2 2 2 3 4 4 4 4 5 5 6 7 8 8 9 9 9 7 6 4 4 3 2 1 2 3 4 5 5 5
7 6 6 4 10 2 7 9 6 5 4 3 2 1 1 1 3 3 4 4 3 3 3 4 5 5 6 6 7 8 9 8 6 4 3 2 1 1 2 2 3 5 6 6
Wind_Direction
191 253 244 251 247 252 273 272 269 268 273 273 248 226 209 212 210 224 224 224 255 289 314 326 319 178 241 200 193 190 175 169 164 164 154 158 173 174 181 185 184 183 187 186
242 259 268 275 269 255 263 272 268 276 263 233 230 230 230 208 233 232 228 222 255 279 309 344 292 180 236 190 188 181 182 160 164 169 159 156 162 180 180 186 190 189 189 189
259 266 281 277 273 262 258 255 262 264 298 201 200 225 206 200 243 249 225 223 223 245 283 333 282 194 200 210 203 178 161 162 157 163 143 148 144 150 178 189 183 189 191 188
267 263 260 277 277 273 272 255 258 245 241 188 196 186 204 205 215 230 219 209 197 243 256 301 263 208 182 200 194 160 146 149 161 166 156 160 169 170 194 187 178 180 187 177
273 261 285 287 267 320 258 320 283 275 193 149 209 216 124 188 219 242 226 235 248 258 280 271 242 221 172 168 125 136 137 144 140 152 169 162 183 188 165 168 169 170 166 173
262 279 260 255 297 279 273 273 247 226 237 128 58 267 85 213 199 167 135 327 329 339 328 258 204 173 145 154 148 151 161 137 164 148 153 167 146 170 160 158 163 156 159 154
286 243 265 261 292 229 304 298 297 344 19 68 336 63 41 26 297 278 358 25 3 356 307 226 170 155 141 157 171 183 163 139 173 173 185 139 143 173 76 150 157 144 152 160
326 23 329 55 277 322 332 343 345 9 8 60 31 56 33 23 19 301 124 31 4 346 327 272 161 144 142 148 161 166 173 176 171 147 193 232 148 92 152 144 112 112 130 164
333 280 299 295 303 288 343 16 329 305 199 56 28 35 95 17 33 48 96 25 335 343 311 229 104 122 138 147 141 149 167 173 169 164 158 148 177 144 155 127 172 189 175 161
343 297 257 350 256 143 335 282 241 334 26 60 54 52 15 358 11 41 117 32 344 351 317 61 76 88 115 121 143 143 178 184 170 155 158 179 158 163 159 164 191 187 156 147
307 284 337 328 18 357 336 11 3 342 356 40 93 62 1 359 17 52 79 38 9 347 354 30 54 61 85 120 130 134 154 155 145 148 164 172 165 169 165 174 175 164 144 158
15 315 347 355 340 265 316 359 359 320 76 41 75 57 10 34 46 58 68 71 350 340 351 29 65 59 69 83 96 109 131 137 142 143 146 154 135 137 150 147 147 143 143 140
16 15 292 175 261 285 2 358 360 12 28 28 47 86 24 58 53 54 71 83 58 15 1 3 43 60 55 69 74 79 88 126 141 138 131 131 134 139 136 134 139 137 140 135
275 54 38 59 43 326 358 17 37 262 80 100 81 93 53 49 56 44 50 61 65 56 27 8 22 43 61 70 98 96 89 101 129 135 138 137 137 137 139 139 139 139 137 135
15 68 63 57 65 75 49 32 43 53 73 79 102 73 45 42 40 50 56 58 50 42 43 39 28 32 43 71 89 99 98 113 129 131 134 130 130 127 134 139 139 133 132 133
6 63 65 72 87 72 66 40 58 56 70 86 90 68 30 39 60 47 42 41 47 45 36 26 32 39 44 46 78 92 103 117 132 126 126 128 127 132 134 134 134 134 133 136
12 150 209 122 302 305 31 2 26 75 46 36 69 47 35 41 33 27 26 39 36 26 23 17 16 25 38 52 67 90 101 111 102 107 117 126 135 135 136 139 144 140 138 135
3 12 294 89 247 83 66 7 25 78 56 61 74 56 39 75 72 32 28 21 28 15 11 8 2 357 33 64 85 96 96 106 118 122 117 123 126 128 136 142 142 140 146 150
22 308 61 11 51 116 125 31 24 10 55 28 62 62 42 89 146 60 23 21 15 8 0 354 353 344 356 34 102 116 113 111 110 120 136 148 148 149 155 149 149 151 148 147
22 352 304 80 91 92 69 64 10 307 93 34 38 40 27 356 32 40 14 14 11 21 9 1 3 17 62 69 69 72 93 124 141 154 151 150 153 156 163 156 151 147 149 142
20 16 42 55 76 104 168 346 331 272 83 56 47 42 34 47 27 32 12 27 25 17 12 15 34 37 31 47 96 91 108 91 87 136 149 156 164 162 160 152 153 158 154 155
283 145 117 135 120 162 131 141 272 75 87 70 73 56 80 99 114 69 32 26 24 24 16 17 35 45 37 28 50 93 76 46 95 114 109 150 148 138 155 156 158 167 172 173
206 333 23 301 35 53 30 42 83 81 117 109 109 103 133 126 121 111 69 54 50 35 26 16 31 42 40 40 36 57 27 39 129 150 153 165 171 171 179 180 169 176 192 195
194 173 206 200 151 142 66 64 73 72 93 74 63 40 99 121 143 126 93 51 50 46 41 30 44 50 44 29 29 25 10 8 33 76 105 135 171 176 181 189 194 196 198 201
66 159 162 149 178 157 206 177 133 108 88 70 61 48 65 157 159 144 129 116 97 77 64 52 53 53 51 42 40 28 8 359 24 18 34 24 25 154 170 225 224 223 227 228
190 167 187 200 173 180 163 163 155 148 118 68 42 88 41 314 193 158 133 130 113 106 90 88 79 73 62 51 42 30 20 9 4 34 51 30 339 238 239 217 240 231 252 240